Time,TemperatureF,DewpointF,PressureIn,WindDirection,WindDirectionDegrees,WindSpeedMPH,WindSpeedGustMPH,Humidity,HourlyPrecipIn,Conditions,Clouds,dailyrainin,SoftwareType,DateUTC
2013-08-26 00:02:00,72.3,67.0,30.12,South,170,0.0,3.0,82,0.00,,,0.00,weatherlink.com 1.10,2013-08-26 04:02:00,
2013-08-26 00:17:00,71.7,66.0,30.12,South,170,0.0,4.0,82,0.00,,,0.00,weatherlink.com 1.10,2013-08-26 04:17:00,
2013-08-26 00:32:00,71.5,66.0,30.12,South,170,0.0,4.0,82,0.00,,,0.00,weatherlink.com 1.10,2013-08-26 04:32:00,
2013-08-26 00:47:00,71.5,65.0,30.12,South,170,0.0,0.0,81,0.00,,,0.00,weatherlink.com 1.10,2013-08-26 04:47:00,
2013-08-26 01:02:00,71.3,65.0,30.12,South,170,0.0,0.0,81,0.00,,,0.00,weatherlink.com 1.10,2013-08-26 05:02:00,
2013-08-26 01:17:00,71.2,65.0,30.12,South,170,0.0,0.0,81,0.00,,,0.00,weatherlink.com 1.10,2013-08-26 05:17:00,
2013-08-26 01:32:00,71.0,65.0,30.11,South,170,0.0,0.0,81,0.00,,,0.00,weatherlink.com 1.10,2013-08-26 05:32:00,
2013-08-26 01:47:00,70.8,65.0,30.11,South,170,0.0,0.0,81,0.00,,,0.00,weatherlink.com 1.10,2013-08-26 05:47:00,
2013-08-26 02:02:00,70.2,65.0,30.11,South,170,0.0,0.0,82,0.00,,,0.00,weatherlink.com 1.10,2013-08-26 06:02:00,
2013-08-26 02:17:00,69.8,64.0,30.10,South,170,0.0,0.0,83,0.00,,,0.00,weatherlink.com 1.10,2013-08-26 06:17:00,
2013-08-26 02:32:00,70.4,65.0,30.10,South,170,2.0,5.0,82,0.00,,,0.00,weatherlink.com 1.10,2013-08-26 06:32:00,
2013-08-26 02:47:00,70.4,65.0,30.09,South,170,0.0,3.0,83,0.00,,,0.00,weatherlink.com 1.10,2013-08-26 06:47:00,
2013-08-26 03:02:00,70.4,65.0,30.09,South,170,2.0,5.0,83,0.00,,,0.00,weatherlink.com 1.10,2013-08-26 07:02:00,
2013-08-26 03:17:00,70.2,66.0,30.09,South,170,4.0,7.0,85,0.00,,,0.00,weatherlink.com 1.10,2013-08-26 07:17:00,
2013-08-26 03:32:00,69.8,66.0,30.08,South,170,5.0,7.0,87,0.00,,,0.00,weatherlink.com 1.10,2013-08-26 07:32:00,
2013-08-26 03:47:00,69.8,67.0,30.08,South,178,1.0,9.0,89,0.00,,,0.00,weatherlink.com 1.10,2013-08-26 07:47:00,
2013-08-26 04:02:00,69.9,67.0,30.08,South,188,5.0,8.0,90,0.00,,,0.00,weatherlink.com 1.10,2013-08-26 08:02:00,
2013-08-26 04:17:00,69.9,67.0,30.09,South,188,2.0,5.0,90,0.00,,,0.00,weatherlink.com 1.10,2013-08-26 08:17:00,
2013-08-26 04:32:00,69.7,67.0,30.09,South,188,0.0,5.0,91,0.00,,,0.00,weatherlink.com 1.10,2013-08-26 08:32:00,
2013-08-26 04:47:00,69.5,67.0,30.09,South,188,0.0,3.0,92,0.00,,,0.00,weatherlink.com 1.10,2013-08-26 08:47:00,
2013-08-26 05:02:00,69.4,67.0,30.09,South,188,0.0,4.0,93,0.00,,,0.00,weatherlink.com 1.10,2013-08-26 09:02:00,
2013-08-26 05:17:00,69.5,68.0,30.09,South,188,0.0,0.0,94,0.00,,,0.00,weatherlink.com 1.10,2013-08-26 09:17:00,
2013-08-26 05:32:00,69.7,68.0,30.09,South,188,0.0,0.0,94,0.00,,,0.00,weatherlink.com 1.10,2013-08-26 09:32:00,
2013-08-26 05:47:00,69.6,68.0,30.09,South,188,0.0,0.0,94,0.00,,,0.00,weatherlink.com 1.10,2013-08-26 09:47:00,
2013-08-26 06:02:00,69.6,68.0,30.09,South,188,0.0,0.0,94,0.00,,,0.00,weatherlink.com 1.10,2013-08-26 10:02:00,
2013-08-26 06:17:00,69.3,68.0,30.09,South,188,0.0,0.0,95,0.00,,,0.00,weatherlink.com 1.10,2013-08-26 10:17:00,
2013-08-26 06:32:00,69.0,68.0,30.09,South,188,0.0,0.0,95,0.00,,,0.00,weatherlink.com 1.10,2013-08-26 10:32:00,
2013-08-26 06:47:00,69.0,68.0,30.10,South,188,0.0,0.0,95,0.00,,,0.00,weatherlink.com 1.10,2013-08-26 10:47:00,
2013-08-26 07:02:00,68.7,67.0,30.09,South,188,0.0,0.0,95,0.00,,,0.00,weatherlink.com 1.10,2013-08-26 11:02:00,
2013-08-26 07:17:00,68.9,68.0,30.10,South,188,0.0,0.0,96,0.00,,,0.00,weatherlink.com 1.10,2013-08-26 11:17:00,
2013-08-26 07:32:00,69.1,68.0,30.11,South,188,0.0,0.0,96,0.00,,,0.00,weatherlink.com 1.10,2013-08-26 11:32:00,
2013-08-26 07:47:00,69.0,68.0,30.11,South,188,0.0,0.0,96,0.00,,,0.00,weatherlink.com 1.10,2013-08-26 11:47:00,
2013-08-26 08:02:00,68.9,68.0,30.11,South,188,0.0,0.0,96,0.00,,,0.00,weatherlink.com 1.10,2013-08-26 12:02:00,
2013-08-26 08:17:00,69.3,69.0,30.11,South,188,0.0,0.0,97,0.00,,,0.00,weatherlink.com 1.10,2013-08-26 12:17:00,
2013-08-26 08:32:00,70.2,70.0,30.11,South,188,0.0,0.0,98,0.00,,,0.00,weatherlink.com 1.10,2013-08-26 12:32:00,
2013-08-26 08:48:00,71.5,71.0,30.12,South,188,0.0,0.0,98,0.00,,,0.00,weatherlink.com 1.10,2013-08-26 12:48:00,
2013-08-26 09:03:00,72.9,72.0,30.12,South,188,3.0,5.0,98,0.00,,,0.00,weatherlink.com 1.10,2013-08-26 13:03:00,
2013-08-26 09:18:00,74.2,73.0,30.12,South,188,5.0,6.0,97,0.00,,,0.00,weatherlink.com 1.10,2013-08-26 13:18:00,
2013-08-26 09:33:00,75.6,74.0,30.11,SW,217,5.0,8.0,95,0.00,,,0.00,weatherlink.com 1.10,2013-08-26 13:33:00,
2013-08-26 09:48:00,77.2,75.0,30.12,SW,229,1.0,7.0,92,0.00,,,0.00,weatherlink.com 1.10,2013-08-26 13:48:00,
2013-08-26 10:03:00,78.3,75.0,30.11,SW,232,1.0,9.0,90,0.00,,,0.00,weatherlink.com 1.10,2013-08-26 14:03:00,
2013-08-26 10:18:00,79.4,75.0,30.11,SW,230,6.0,10.0,87,0.00,,,0.00,weatherlink.com 1.10,2013-08-26 14:18:00,
2013-08-26 10:33:00,80.5,76.0,30.11,SW,221,5.0,8.0,86,0.00,,,0.00,weatherlink.com 1.10,2013-08-26 14:33:00,
2013-08-26 10:48:00,81.6,76.0,30.11,SW,236,8.0,9.0,83,0.00,,,0.00,weatherlink.com 1.10,2013-08-26 14:48:00,
2013-08-26 11:03:00,82.2,77.0,30.11,SW,222,7.0,8.0,83,0.00,,,0.00,weatherlink.com 1.10,2013-08-26 15:03:00,
2013-08-26 11:18:00,83.1,77.0,30.11,SW,235,2.0,7.0,81,0.00,,,0.00,weatherlink.com 1.10,2013-08-26 15:18:00,
2013-08-26 11:33:00,83.9,77.0,30.11,WSW,243,3.0,8.0,80,0.00,,,0.00,weatherlink.com 1.10,2013-08-26 15:33:00,
2013-08-26 11:48:00,84.5,77.0,30.11,WSW,249,0.0,6.0,77,0.00,,,0.00,weatherlink.com 1.10,2013-08-26 15:48:00,
2013-08-26 12:03:00,85.9,78.0,30.10,WSW,249,3.0,6.0,77,0.00,,,0.00,weatherlink.com 1.10,2013-08-26 16:03:00,
2013-08-26 12:18:00,86.3,78.0,30.10,SW,236,4.0,8.0,76,0.00,,,0.00,weatherlink.com 1.10,2013-08-26 16:18:00,
2013-08-26 12:33:00,86.4,78.0,30.09,WSW,248,2.0,9.0,75,0.00,,,0.00,weatherlink.com 1.10,2013-08-26 16:33:00,
2013-08-26 12:48:00,87.5,78.0,30.09,WSW,242,2.0,7.0,73,0.00,,,0.00,weatherlink.com 1.10,2013-08-26 16:48:00,
2013-08-26 13:03:00,88.2,78.0,30.08,SW,232,1.0,8.0,71,0.00,,,0.00,weatherlink.com 1.10,2013-08-26 17:03:00,
2013-08-26 13:18:00,88.8,78.0,30.08,WSW,258,1.0,9.0,71,0.00,,,0.00,weatherlink.com 1.10,2013-08-26 17:18:00,
2013-08-26 13:33:00,89.3,78.0,30.07,WSW,256,7.0,7.0,70,0.00,,,0.00,weatherlink.com 1.10,2013-08-26 17:33:00,
2013-08-26 13:48:00,89.8,77.0,30.07,SW,221,2.0,8.0,67,0.00,,,0.00,weatherlink.com 1.10,2013-08-26 17:48:00,
2013-08-26 14:04:00,89.7,77.0,30.07,SSW,212,1.0,8.0,67,0.00,,,0.00,weatherlink.com 1.10,2013-08-26 18:04:00,
2013-08-26 14:19:00,89.3,77.0,30.06,SW,219,3.0,8.0,68,0.00,,,0.00,weatherlink.com 1.10,2013-08-26 18:19:00,
2013-08-26 14:34:00,90.4,76.0,30.05,SW,220,3.0,9.0,63,0.00,,,0.00,weatherlink.com 1.10,2013-08-26 18:34:00,
2013-08-26 14:49:00,90.0,77.0,30.05,SW,214,1.0,8.0,65,0.00,,,0.00,weatherlink.com 1.10,2013-08-26 18:49:00,
2013-08-26 15:04:00,91.0,76.0,30.05,SW,231,1.0,9.0,61,0.00,,,0.00,weatherlink.com 1.10,2013-08-26 19:04:00,
2013-08-26 15:19:00,91.0,75.0,30.03,WSW,242,2.0,8.0,60,0.00,,,0.00,weatherlink.com 1.10,2013-08-26 19:19:00,
2013-08-26 15:34:00,91.5,75.0,30.03,SW,229,1.0,7.0,58,0.00,,,0.00,weatherlink.com 1.10,2013-08-26 19:34:00,
2013-08-26 15:49:00,91.3,76.0,30.02,SW,224,3.0,8.0,61,0.00,,,0.00,weatherlink.com 1.10,2013-08-26 19:49:00,
2013-08-26 16:04:00,91.9,75.0,30.02,SW,227,2.0,9.0,58,0.00,,,0.00,weatherlink.com 1.10,2013-08-26 20:04:00,
2013-08-26 16:19:00,91.6,75.0,30.02,WSW,242,5.0,9.0,58,0.00,,,0.00,weatherlink.com 1.10,2013-08-26 20:19:00,
2013-08-26 16:34:00,91.5,76.0,30.01,SW,218,2.0,10.0,60,0.00,,,0.00,weatherlink.com 1.10,2013-08-26 20:34:00,
2013-08-26 16:49:00,92.1,75.0,30.01,SW,222,5.0,8.0,58,0.00,,,0.00,weatherlink.com 1.10,2013-08-26 20:49:00,
2013-08-26 17:04:00,91.8,75.0,30.00,SSW,206,4.0,9.0,58,0.00,,,0.00,weatherlink.com 1.10,2013-08-26 21:04:00,
2013-08-26 17:19:00,91.8,75.0,30.00,SW,215,6.0,7.0,59,0.00,,,0.00,weatherlink.com 1.10,2013-08-26 21:19:00,
2013-08-26 17:34:00,91.1,75.0,30.00,SW,232,3.0,9.0,60,0.00,,,0.00,weatherlink.com 1.10,2013-08-26 21:34:00,
2013-08-26 17:49:00,91.5,76.0,30.00,SW,223,5.0,7.0,60,0.00,,,0.00,weatherlink.com 1.10,2013-08-26 21:49:00,
2013-08-26 18:04:00,91.5,76.0,30.00,SW,215,5.0,8.0,61,0.00,,,0.00,weatherlink.com 1.10,2013-08-26 22:04:00,
2013-08-26 18:19:00,90.6,74.0,30.00,SW,225,5.0,8.0,59,0.00,,,0.00,weatherlink.com 1.10,2013-08-26 22:19:00,
2013-08-26 18:34:00,90.7,75.0,29.99,SW,225,5.0,6.0,61,0.00,,,0.00,weatherlink.com 1.10,2013-08-26 22:34:00,
2013-08-26 18:49:00,90.3,76.0,29.99,SW,225,1.0,6.0,63,0.00,,,0.00,weatherlink.com 1.10,2013-08-26 22:49:00,
2013-08-26 19:04:00,89.6,75.0,29.98,SW,225,2.0,5.0,63,0.00,,,0.00,weatherlink.com 1.10,2013-08-26 23:04:00,
2013-08-26 19:19:00,89.1,76.0,29.98,SW,225,1.0,4.0,65,0.00,,,0.00,weatherlink.com 1.10,2013-08-26 23:19:00,
2013-08-26 19:34:00,88.7,77.0,29.97,SW,225,0.0,2.0,68,0.00,,,0.00,weatherlink.com 1.10,2013-08-26 23:34:00,
2013-08-26 19:49:00,87.5,76.0,29.97,SW,225,0.0,2.0,69,0.00,,,0.00,weatherlink.com 1.10,2013-08-26 23:49:00,
2013-08-26 20:04:00,86.0,76.0,29.97,SW,225,0.0,2.0,72,0.00,,,0.00,weatherlink.com 1.10,2013-08-27 00:04:00,
2013-08-26 20:19:00,84.8,76.0,29.97,SW,225,0.0,0.0,75,0.00,,,0.00,weatherlink.com 1.10,2013-08-27 00:19:00,
2013-08-26 20:34:00,83.6,76.0,29.97,SW,225,0.0,2.0,77,0.00,,,0.00,weatherlink.com 1.10,2013-08-27 00:34:00,
2013-08-26 20:49:00,82.7,75.0,29.97,SW,225,0.0,3.0,78,0.00,,,0.00,weatherlink.com 1.10,2013-08-27 00:49:00,
2013-08-26 21:04:00,82.0,75.0,29.97,SW,225,1.0,3.0,79,0.00,,,0.00,weatherlink.com 1.10,2013-08-27 01:04:00,
2013-08-26 21:19:00,81.4,75.0,29.97,SW,225,0.0,1.0,80,0.00,,,0.00,weatherlink.com 1.10,2013-08-27 01:19:00,
2013-08-26 21:34:00,80.7,74.0,29.96,SW,225,0.0,3.0,81,0.00,,,0.00,weatherlink.com 1.10,2013-08-27 01:34:00,
2013-08-26 21:49:00,79.9,74.0,29.97,SW,225,0.0,4.0,82,0.00,,,0.00,weatherlink.com 1.10,2013-08-27 01:49:00,
2013-08-26 22:04:00,79.4,74.0,29.96,SW,225,1.0,4.0,82,0.00,,,0.00,weatherlink.com 1.10,2013-08-27 02:04:00,
2013-08-26 22:19:00,79.1,73.0,29.96,SW,225,1.0,4.0,82,0.00,,,0.00,weatherlink.com 1.10,2013-08-27 02:19:00,
2013-08-26 22:34:00,79.0,73.0,29.97,SW,225,6.0,7.0,81,0.00,,,0.00,weatherlink.com 1.10,2013-08-27 02:34:00,
2013-08-26 22:49:00,78.8,73.0,29.97,SW,225,2.0,3.0,81,0.00,,,0.00,weatherlink.com 1.10,2013-08-27 02:49:00,
2013-08-26 23:04:00,78.7,72.0,29.96,SW,225,0.0,6.0,81,0.00,,,0.00,weatherlink.com 1.10,2013-08-27 03:04:00,
2013-08-26 23:19:00,78.4,73.0,29.97,SW,221,2.0,4.0,82,0.00,,,0.00,weatherlink.com 1.10,2013-08-27 03:19:00,
2013-08-26 23:34:00,78.0,73.0,29.97,SW,221,1.0,5.0,83,0.00,,,0.00,weatherlink.com 1.10,2013-08-27 03:34:00,
2013-08-26 23:49:00,77.5,72.0,29.97,SW,221,0.0,3.0,84,0.00,,,0.00,weatherlink.com 1.10,2013-08-27 03:49:00,